• In Russia
  • List of Countries
  • For 7 days
  • Water Temperature
  • Satellite Maps
  • Weather Map
  • Weather Widgets
  • user-avatar
    Login

    Hourly Weather Louangphabang

    Today, 19 July, Friday

    Time Temperature Precipitation Wind Pressure Humidity
    00:00 +25°C° 0 mm 1 mps 693 mmHg 92%
    01:00 +25°C° 0 mm 1 mps 693 mmHg 93%
    02:00 +24°C° 0 mm 1 mps 693 mmHg 94%
    03:00 +22°C° 0 mm 0 mps 692 mmHg 96%
    04:00 +22°C° 0 mm 0 mps 692 mmHg 97%
    05:00 +23°C° 0 mm 0 mps 693 mmHg 94%
    06:00 +23°C° 0 mm 0 mps 693 mmHg 92%
    07:00 +24°C° 0 mm 0 mps 693 mmHg 90%
    08:00 +26°C° 0 mm 0 mps 694 mmHg 79%
    09:00 +30°C° 0 mm 1 mps 694 mmHg 68%
    10:00 +33°C° 0 mm 1 mps 695 mmHg 57%
    11:00 +33°C° 0 mm 1 mps 694 mmHg 54%
    12:00 +34°C° 0 mm 1 mps 694 mmHg 51%
    13:00 +35°C° 0 mm 1 mps 693 mmHg 48%
    14:00 +35°C° 0.1 mm 1 mps 693 mmHg 48%
    15:00 +35°C° 0.1 mm 1 mps 692 mmHg 49%
    16:00 +35°C° 0.1 mm 1 mps 691 mmHg 49%
    17:00 +33°C° 0 mm 1 mps 691 mmHg 58%
    18:00 +31°C° 0 mm 1 mps 692 mmHg 67%
    19:00 +29°C° 0 mm 1 mps 692 mmHg 77%
    20:00 +28°C° 0 mm 1 mps 692 mmHg 79%
    21:00 +27°C° 0 mm 1 mps 693 mmHg 81%
    22:00 +26°C° 0 mm 1 mps 694 mmHg 83%
    23:00 +26°C° 0.1 mm 1 mps 693 mmHg 86%

    Tomorrow, 20 July, Saturday

    Time Temperature Precipitation Wind Pressure Humidity
    00:00 +26°C° 0.1 mm 1 mps 693 mmHg 89%
    01:00 +25°C° 0.1 mm 1 mps 693 mmHg 92%
    02:00 +25°C° 0 mm 1 mps 693 mmHg 93%
    03:00 +25°C° 0 mm 1 mps 693 mmHg 94%
    04:00 +25°C° 0 mm 1 mps 693 mmHg 95%
    05:00 +23°C° 0 mm 0 mps 693 mmHg 94%
    06:00 +23°C° 0 mm 0 mps 694 mmHg 92%
    07:00 +24°C° 0 mm 0 mps 694 mmHg 91%
    08:00 +26°C° 0 mm 0 mps 694 mmHg 81%
    09:00 +28°C° 0 mm 0 mps 695 mmHg 72%
    10:00 +32°C° 0 mm 1 mps 695 mmHg 62%
    11:00 +32°C° 0.1 mm 1 mps 695 mmHg 60%
    12:00 +33°C° 0.1 mm 1 mps 694 mmHg 57%
    13:00 +33°C° 0.1 mm 1 mps 694 mmHg 55%
    14:00 +33°C° 0.1 mm 1 mps 693 mmHg 56%
    15:00 +33°C° 0.1 mm 1 mps 693 mmHg 57%
    16:00 +33°C° 0.1 mm 1 mps 692 mmHg 58%
    17:00 +31°C° 0 mm 1 mps 692 mmHg 67%
    18:00 +30°C° 0 mm 1 mps 692 mmHg 75%
    19:00 +26°C° 0 mm 0 mps 692 mmHg 84%
    20:00 +25°C° 0 mm 0 mps 693 mmHg 86%
    21:00 +27°C° 0 mm 1 mps 693 mmHg 88%
    22:00 +26°C° 0 mm 1 mps 694 mmHg 90%
    23:00 +26°C° 0.3 mm 1 mps 694 mmHg 92%

    Day after tomorrow, 21 July, Sunday

    Time Temperature Precipitation Wind Pressure Humidity
    00:00 +25°C° 0.3 mm 1 mps 693 mmHg 94%
    01:00 +25°C° 0.3 mm 1 mps 693 mmHg 96%
    02:00 +25°C° 0.1 mm 1 mps 693 mmHg 97%
    03:00 +24°C° 0.1 mm 1 mps 693 mmHg 97%
    04:00 +24°C° 0.1 mm 1 mps 693 mmHg 97%
    05:00 +23°C° 0 mm 0 mps 693 mmHg 96%
    06:00 +23°C° 0 mm 0 mps 693 mmHg 95%
    07:00 +23°C° 0 mm 0 mps 694 mmHg 93%
    08:00 +28°C° 0 mm 1 mps 694 mmHg 82%
    09:00 +30°C° 0 mm 1 mps 694 mmHg 70%
    10:00 +32°C° 0 mm 1 mps 695 mmHg 59%
    11:00 +33°C° 0 mm 1 mps 695 mmHg 56%
    12:00 +34°C° 0 mm 1 mps 694 mmHg 54%
    13:00 +34°C° 0 mm 1 mps 694 mmHg 51%
    14:00 +34°C° 0.4 mm 1 mps 693 mmHg 55%
    15:00 +33°C° 0.4 mm 1 mps 693 mmHg 59%
    16:00 +33°C° 0.4 mm 1 mps 692 mmHg 63%
    17:00 +30°C° 0.3 mm 1 mps 692 mmHg 73%
    18:00 +28°C° 0.3 mm 1 mps 692 mmHg 83%
    19:00 +26°C° 0.3 mm 1 mps 692 mmHg 93%
    20:00 +26°C° 0 mm 1 mps 692 mmHg 94%
    21:00 +25°C° 0 mm 1 mps 693 mmHg 95%
    22:00 +25°C° 0 mm 1 mps 694 mmHg 96%
    23:00 +24°C° 0.2 mm 1 mps 694 mmHg 96%

    22 July, Monday

    Time Temperature Precipitation Wind Pressure Humidity
    00:00 +24°C° 0.2 mm 1 mps 693 mmHg 96%
    01:00 +24°C° 0.2 mm 1 mps 693 mmHg 96%
    02:00 +24°C° 0 mm 1 mps 693 mmHg 97%
    03:00 +24°C° 0 mm 1 mps 693 mmHg 97%
    04:00 +23°C° 0 mm 1 mps 692 mmHg 97%
    05:00 +24°C° 0 mm 1 mps 693 mmHg 96%
    06:00 +24°C° 0 mm 1 mps 693 mmHg 95%
    07:00 +25°C° 0 mm 1 mps 694 mmHg 94%
    08:00 +26°C° 0.3 mm 1 mps 694 mmHg 87%
    09:00 +28°C° 0.3 mm 1 mps 694 mmHg 81%
    10:00 +29°C° 0.3 mm 1 mps 695 mmHg 75%
    11:00 +30°C° 0.7 mm 1 mps 694 mmHg 73%
    12:00 +30°C° 0.7 mm 1 mps 694 mmHg 72%
    13:00 +31°C° 0.7 mm 1 mps 693 mmHg 71%
    14:00 +30°C° 1.2 mm 1 mps 693 mmHg 77%
    15:00 +30°C° 1.2 mm 1 mps 692 mmHg 83%
    16:00 +29°C° 1.2 mm 1 mps 692 mmHg 90%
    17:00 +28°C° 0.8 mm 1 mps 692 mmHg 92%
    18:00 +26°C° 0.8 mm 1 mps 692 mmHg 94%
    19:00 +25°C° 0.8 mm 1 mps 692 mmHg 97%
    20:00 +25°C° 1.2 mm 1 mps 693 mmHg 97%
    21:00 +24°C° 1.2 mm 1 mps 694 mmHg 98%
    22:00 +24°C° 1.2 mm 1 mps 695 mmHg 98%
    23:00 +24°C° 1.9 mm 1 mps 694 mmHg 99%

    23 July, Tuesday

    Time Temperature Precipitation Wind Pressure Humidity
    00:00 +24°C° 1.9 mm 1 mps 694 mmHg 99%
    01:00 +23°C° 1.9 mm 1 mps 694 mmHg 99%
    02:00 +23°C° 0.9 mm 1 mps 694 mmHg 99%
    03:00 +23°C° 0.9 mm 1 mps 693 mmHg 99%
    04:00 +23°C° 0.9 mm 1 mps 693 mmHg 99%
    05:00 +23°C° 0.4 mm 1 mps 693 mmHg 99%
    06:00 +23°C° 0.4 mm 1 mps 694 mmHg 99%
    07:00 +23°C° 0.4 mm 1 mps 694 mmHg 99%
    08:00 +23°C° 0.5 mm 1 mps 694 mmHg 99%
    09:00 +24°C° 0.5 mm 1 mps 694 mmHg 99%
    10:00 +24°C° 0.5 mm 1 mps 695 mmHg 98%
    11:00 +24°C° 0.8 mm 1 mps 695 mmHg 98%
    12:00 +24°C° 0.8 mm 1 mps 694 mmHg 98%
    13:00 +24°C° 0.8 mm 1 mps 694 mmHg 99%
    14:00 +24°C° 0.5 mm 1 mps 694 mmHg 98%
    15:00 +24°C° 0.5 mm 1 mps 694 mmHg 97%
    16:00 +24°C° 0.5 mm 1 mps 693 mmHg 97%
    17:00 +24°C° 0.3 mm 1 mps 693 mmHg 97%
    18:00 +24°C° 0.3 mm 1 mps 694 mmHg 98%
    19:00 +23°C° 0.3 mm 1 mps 694 mmHg 99%
    20:00 +23°C° 0.1 mm 1 mps 694 mmHg 99%
    21:00 +23°C° 0.1 mm 1 mps 695 mmHg 99%
    22:00 +21°C° 0.1 mm 0 mps 695 mmHg 99%
    23:00 +23°C° 0 mm 1 mps 695 mmHg 99%

    24 July, Wednesday

    Time Temperature Precipitation Wind Pressure Humidity
    00:00 +23°C° 0 mm 1 mps 695 mmHg 99%
    01:00 +23°C° 0 mm 1 mps 694 mmHg 99%
    02:00 +21°C° 0 mm 0 mps 694 mmHg 99%
    03:00 +21°C° 0 mm 0 mps 694 mmHg 99%
    04:00 +21°C° 0 mm 0 mps 694 mmHg 99%
    05:00 +21°C° 0 mm 0 mps 694 mmHg 99%
    06:00 +21°C° 0 mm 0 mps 694 mmHg 99%
    07:00 +21°C° 0 mm 0 mps 694 mmHg 98%
    08:00 +24°C° 0.2 mm 1 mps 695 mmHg 94%
    09:00 +25°C° 0.2 mm 1 mps 695 mmHg 91%
    10:00 +26°C° 0.2 mm 1 mps 695 mmHg 87%
    11:00 +26°C° 1.4 mm 1 mps 695 mmHg 90%
    12:00 +26°C° 1.4 mm 1 mps 695 mmHg 93%
    13:00 +26°C° 1.4 mm 1 mps 694 mmHg 95%
    14:00 +26°C° 1.5 mm 1 mps 694 mmHg 96%
    15:00 +26°C° 1.5 mm 1 mps 694 mmHg 97%
    16:00 +25°C° 1.5 mm 1 mps 693 mmHg 97%
    17:00 +25°C° 0.6 mm 1 mps 693 mmHg 98%
    18:00 +24°C° 0.6 mm 1 mps 694 mmHg 98%
    19:00 +23°C° 0.6 mm 1 mps 694 mmHg 99%
    20:00 +23°C° 0.1 mm 1 mps 695 mmHg 99%
    21:00 +23°C° 0.1 mm 1 mps 695 mmHg 99%
    22:00 +23°C° 0.1 mm 1 mps 696 mmHg 99%
    23:00 +23°C° 0 mm 1 mps 696 mmHg 99%
    Show more